星链-36538(STARLINK-36538)

导读 | 豆包AI

STARLINK-36538是美国太空探索技术公司(SpaceX)星链(Starlink)星座的卫星,于2026年1月18日成功发射。作为Starlink低轨互联网星座的组成部分,它将和其他星链卫星组网,为全球范围内用户提供高速低延迟的宽带互联网服务,进一步扩充星链星座的服务覆盖范围与容量。

基本信息
目录编号:
67512
目录名称:
STARLINK-36538
国际标识:
2026-012V
轨道中心:
EARTH
卫星名称:
星链-36538
卫星全名:
星链-36538(STARLINK-36538)
卫星状态:
在轨 (已飞行127 天)
发射日期:
2026-01-18 UTC
国别 :
美国 (US)
星等 :
--
轨道信息
数据来源 国际轨道数据
星历时间: 2026-05-24T07:29:44+0800
1天前
查看轨道信息
半长轴: 6861.17km
偏心率: 0.0001335
轨道倾角: 43.000°
近地点辐角 23.613°
升交点赤经 249.439°
平近点角 336.478°
近地点: 482.117km
远地点: 483.949km
周期: 94.266分钟
每日圈数: 15.275856
详细信息
固有亮度:
5
最大亮度:
2.5
卫星平台:
Starlink V1.0
覆盖范围:
全球
运营商:
太空探索技术公司
运营商所在国:
美国
制造商(研发单位):
太空探索技术公司
制造商所在国:
美国
使用方式:
暂无
卫星简介
Starlink 计划是 SpaceX 推出的全球卫星互联网项目,通过发射低轨道卫星,为全球尤其是偏远地区提供高速、低延迟的互联网服务。自 2019 年起,Starlink 已部署数千颗卫星,旨在缩小全球数字鸿沟,推动互联网普及。该项目还为军事、航空等行业提供通信支持,带来广泛经济效益。
2D轨道图
3D轨道图
轨道高度分析图
轨道倾角分析图
轨道综合分析图
查看轨道综合分析图